TimeICT,TemperatureF,Dew PointF,Humidity,Sea Level PressureIn,VisibilityMPH,Wind Direction,Wind SpeedMPH,Gust SpeedMPH,PrecipitationIn,Events,Conditions,WindDirDegrees,DateUTC
6:00 AM,80.6,71.6,74,29.86,5.6,NNE,6.9,-,N/A,,Partly Cloudy,30,2012-10-21 23:00:00
7:00 AM,81,74,72,29.87,6,NE,4.5,,,,Scattered Clouds,50,2012-10-22 00:00:00
7:00 AM,82.4,71.6,70,29.89,5.6,NE,6.9,-,N/A,,Scattered Clouds,50,2012-10-22 00:00:00
7:30 AM,82.4,71.6,70,29.89,5.6,ENE,9.2,-,N/A,,Scattered Clouds,60,2012-10-22 00:30:00
8:00 AM,84.2,71.6,66,29.89,5.6,NE,9.2,-,N/A,,Scattered Clouds,50,2012-10-22 01:00:00
8:30 AM,84.2,71.6,66,29.92,6.2,NE,10.4,-,N/A,,Scattered Clouds,50,2012-10-22 01:30:00
9:00 AM,84.2,71.6,66,29.92,6.2,NNW,8.1,-,N/A,,Scattered Clouds,340,2012-10-22 02:00:00
9:30 AM,86.0,71.6,62,29.92,6.2,NNE,11.5,-,N/A,,Scattered Clouds,30,2012-10-22 02:30:00
10:00 AM,87.8,71.6,58,29.89,6.2,North,5.8,-,N/A,,Scattered Clouds,350,2012-10-22 03:00:00
10:30 AM,87.8,69.8,55,29.89,6.2,NNW,11.5,-,N/A,,Scattered Clouds,340,2012-10-22 03:30:00
11:00 AM,87.8,69.8,55,29.89,6.2,NNE,10.4,-,N/A,,Scattered Clouds,30,2012-10-22 04:00:00
11:30 AM,89.6,68.0,49,29.86,6.2,NNE,13.8,-,N/A,,Scattered Clouds,20,2012-10-22 04:30:00
12:00 PM,89.6,68.0,49,29.86,6.2,NE,16.1,-,N/A,,Partly Cloudy,40,2012-10-22 05:00:00
12:30 PM,89.6,68.0,49,29.83,6.2,ENE,16.1,-,N/A,,Partly Cloudy,60,2012-10-22 05:30:00
1:00 PM,89.6,69.8,52,29.83,6.2,NE,11.5,-,N/A,,Scattered Clouds,50,2012-10-22 06:00:00
1:30 PM,89.6,68.0,49,29.83,6.2,ENE,9.2,-,N/A,,Scattered Clouds,60,2012-10-22 06:30:00
2:00 PM,91.4,71.6,52,29.80,6.2,NE,11.5,-,N/A,,Scattered Clouds,50,2012-10-22 07:00:00
2:30 PM,89.6,69.8,52,29.77,6.2,NE,17.3,-,N/A,,Scattered Clouds,40,2012-10-22 07:30:00
3:00 PM,89.6,69.8,52,29.77,6.2,ENE,12.7,-,N/A,,Partly Cloudy,60,2012-10-22 08:00:00
3:30 PM,89.6,69.8,52,29.77,6.2,ENE,6.9,-,N/A,,Partly Cloudy,70,2012-10-22 08:30:00
4:00 PM,89.6,69.8,52,29.77,6.2,ENE,11.5,-,N/A,,Partly Cloudy,60,2012-10-22 09:00:00
4:30 PM,89.6,69.8,52,29.77,6.2,NE,5.8,-,N/A,,Partly Cloudy,50,2012-10-22 09:30:00
5:00 PM,87.8,69.8,55,29.80,6.2,NE,10.4,-,N/A,,Partly Cloudy,50,2012-10-22 10:00:00
5:30 PM,87.8,69.8,55,29.80,6.2,ENE,8.1,-,N/A,,Scattered Clouds,70,2012-10-22 10:30:00
6:00 PM,87.8,69.8,55,29.83,5.6,ENE,6.9,-,N/A,,Scattered Clouds,60,2012-10-22 11:00:00
6:30 PM,87.8,71.6,58,29.83,5.6,NNE,9.2,-,N/A,Rain,Light Rain,30,2012-10-22 11:30:00
7:00 PM,86.0,73.4,66,29.86,4.3,ENE,12.7,-,N/A,Rain,Light Rain,70,2012-10-22 12:00:00
7:30 PM,78.8,71.6,78,29.86,5.6,NE,13.8,-,N/A,Rain,Rain,50,2012-10-22 12:30:00
8:00 PM,78.8,73.4,83,29.86,5.6,ENE,6.9,-,N/A,Rain,Light Rain,60,2012-10-22 13:00:00
8:30 PM,78.8,73.4,83,29.86,-9999.0,NE,11.5,-,N/A,Rain,Light Rain,40,2012-10-22 13:30:00
9:00 PM,77.0,71.6,83,29.89,5.0,East,12.7,-,N/A,Rain,Light Rain,90,2012-10-22 14:00:00
9:30 PM,77.0,73.4,89,29.89,5.0,South,10.4,-,N/A,Rain,Light Rain,180,2012-10-22 14:30:00
10:00 PM,77.0,73.4,89,29.86,5.6,SSW,4.6,-,N/A,Rain,Rain,210,2012-10-22 15:00:00
10:30 PM,78.8,73.4,83,29.86,5.6,South,3.5,-,N/A,,Scattered Clouds,170,2012-10-22 15:30:00
11:00 PM,78.8,75.2,89,29.86,5.6,East,2.3,-,N/A,,Scattered Clouds,90,2012-10-22 16:00:00
11:30 PM,78.8,75.2,89,29.86,5.6,South,2.3,-,N/A,,Scattered Clouds,170,2012-10-22 16:30:00